• Join FlightAware (Why Join?)
  • Login
  • US Flag 
05:51AM EDT


 

Airport Tracker/Info


-or-


 

Live Flight TrackerFlight Track Log ✈ N675MC ✈ 09-Sep-2013 ✈ KAGS - KATL

Flight Track Log - Related Links

Times and Time Zones

All times are in EDT time to prevent confusion due to time zone crossing. See the N675MC flight status page for this flight to view local times or setup timezone preferences in your user account.

Time Position Orientation Groundspeed Altitude Reporting Facility
EDT Latitude Longitude Course Direction KTS MPH feet Rate Location/Type
08:09AM 33.4631 -82.0642 244° Southwest 251 289 4,000  Level Atlanta Center
08:10AM 33.4564 -82.1564 265° West 266 306 6,700 2,400 Climbing Atlanta Center
08:11AM 33.4469 -82.2389 262° West 281 323 8,800 2,100 Climbing Atlanta Center
08:12AM 33.4339 -82.3461 262° West 321 369 10,900 1,620 Climbing Atlanta Center
08:13AM 33.4241 -82.4286 244° Southwest  Level Estimated
08:13AM 33.4189 -82.4633 261° West 352 405 12,100  Level Atlanta Center
08:14AM 33.3994 -82.5931 260° West 384 442 14,000 1,800 Climbing Atlanta Center
08:15AM 33.3803 -82.7378 261° West 400 460 15,800 1,620 Climbing Atlanta Center
08:16AM 33.3631 -82.8772 262° West 415 478 17,300 1,440 Climbing Atlanta Center
08:17AM 33.3456 -83.0217 262° West 434 499 18,700 1,620 Climbing Atlanta Center
08:18AM 33.3319 -83.1611 263° West 439 505 20,600 1,620 Climbing Atlanta Center
08:19AM 33.3078 -83.2956 258° West 427 491 22,000 660 Climbing Atlanta Center
08:20AM 33.2814 -83.4300 257° West 413 475 22,000 -1,560 Level Atlanta Center
08:21AM 33.2569 -83.5619 258° West 413 475 18,900 -3,180 Descending Atlanta Center
08:22AM 33.2364 -83.6861 259° West 399 459 15,700 -2,400 Descending Atlanta Center
08:23AM 33.2200 -83.7956 260° West 387 445 14,200 -1,200 Descending Atlanta Center
08:24AM 33.2722 -83.8947 302° West 334 384 13,400 -780 Descending Atlanta Center
08:25AM 33.3350 -83.9842 310° West 341 392 12,700 -720 Descending Atlanta Center
08:26AM 33.3956 -84.0761 308° West 356 410 12,000 -360 Descending Atlanta Center
08:27AM 33.4497 -84.1708 304° West 356 410 12,000  Level Atlanta Center
08:28AM 33.4978 -84.2456 308° West 312 359 12,000 -420 Level Atlanta Center
08:29AM 33.5333 -84.3167 301° West 248 285 11,200 -1,200 Descending Atlanta TRACON
08:30AM 33.5411 -84.4053 276° West 241 277 9,600 -1,740 Descending Atlanta Center
08:31AM 33.5347 -84.4850 265° West 241 277 7,900 -1,800 Descending Atlanta Center
08:33AM 33.5333 -84.6333 269° West 229 264 4,300 -1,500 Descending Atlanta TRACON
08:34AM 33.5500 -84.7000 287° West 202 232 3,400 -660 Descending Atlanta TRACON
08:35AM 33.6000 -84.7167 344° North 192 221 3,000 -240 Descending Atlanta TRACON
08:36AM 33.6167 -84.6667 68° East 182 209 3,000  Level Atlanta TRACON
08:37AM 33.6167 -84.6167 90° East 188 216 3,000 -240 Level Atlanta TRACON
08:38AM 33.6167 -84.5500 90° East 189 217 2,600 -720 Descending Atlanta TRACON
08:39AM 33.6167 -84.5000 90° East 146 168 1,700 -840 Descending Atlanta TRACON
08:40AM 33.6167 -84.4500 90° East 136 157 1,100 -720 Descending Atlanta TRACON